Simultaneous Nadir Overpasses (SNOs) Predictions

Prediction of SNOs between LANDSAT-8 and NOAA-19 Satellite Orbit:

Table of predicted SNOs for the next 14.0 days since TLE Epoch: 9/5/2020
Index Date (LANDSAT-8) Time (LANDSAT-8) Lat,Lon (LANDSAT-8) SZA (LANDSAT-8 ) Date (NOAA-19) Time (NOAA-19) Lat,Lon (NOAA-19) SZA (NOAA-19 ) Distance(km) Time Diff (sec)
1 09/06/2020 18:58:18 79.90, -77.64 74.97 09/06/2020 18:58:34 79.91, -77.56 74.99 1.78 16
2 09/09/2020 00:32:03 -79.93, 19.10 104.15 09/09/2020 00:31:45 -79.93, 19.06 104.16 0.80 18
3 09/11/2020 06:05:47 79.94, 115.75 76.73 09/11/2020 06:05:06 79.93, 115.71 76.71 0.78 41
4 09/11/2020 06:55:15 -79.91, -76.82 103.30 09/11/2020 06:56:00 -79.91, -76.73 103.27 1.78 45
5 09/13/2020 11:39:32 -79.96,-147.50 102.37 09/13/2020 11:38:21 -80.05,-149.05 102.44 31.69 71
6 09/13/2020 12:28:59 79.92, 19.80 77.58 09/13/2020 12:29:21 79.92, 19.96 77.61 3.05 22
7 09/15/2020 18:02:43 -79.94, 116.55 101.51 09/15/2020 18:02:31 -79.94, 116.40 101.53 2.99 12
8 09/17/2020 23:36:27 79.94,-146.87 79.37 09/17/2020 23:35:52 79.95,-146.90 79.36 0.92 35
